Weather in Tvorozhkovo

Russia / Pskov Oblast     58°21′30″N   28°40′08″E
temp.,
°C
wind,
m/s
gust,
m/s
humid.,
%
clouds,
%
prec.,
mm/h
press.,
hPa
HPBL,
m
24 october, sun
sun2400:00+2nnw5983100 0.0 1013900
03:00+2nw4108897 0.2 1016876
06:00+1nw498881 0.1 1018702
09:00−1nw398654 0.1 1021596
12:00+2nw476675 0.0 10241071
15:00+3nw466392 0.0 10251184
18:000wnw2583100 0.0 1026135
21:000sw248474 0.0 1027106
25 october, mon
mon2500:000ssw388565 0.0 1026218
03:00+1ssw41290100 0.0 1025345
06:00+2ssw51288100 0.0 1023442
09:00+3ssw51493100 0.0 1022501
12:00+6sw61484100 0.0 1022697
15:00+6sw6117698 0.0 1020937
18:00+5sw411793 0.0 1019624
21:00+4sw51384100 0.0 1018526
26 october, tue
tue2600:00+3sw51482100 0.0 1018509
03:00+3ssw41284100 0.0 1017388
06:00+2ssw4118699 0.0 1016340
09:00+2ssw4118399 0.0 1015364
12:00+5sw4107498 0.0 1014431
15:00+6sw4971100 0.0 1013526
18:00+5ssw41081100 0.0 1013344
21:00+5sw41083100 0.0 1012359
27 october, wed
wed2700:00+5ssw41084100 0.0 1012385
03:00+5ssw41291100 0.8 1010452
06:00+6sw41395100 1.8 1009721
09:00+7wsw4119565 3.3 1010638
12:00+7wsw51084100 0.0 1011781
15:00+7w4985100 0.4 10111040
18:00+6wsw3109033 0.1 1013408
21:00+5wsw31092100 0.1 1013337
28 october, thu
thu2800:00+5ssw31091100 0.0 1013359
03:00+6s41296100 0.1 1010520
06:00+7ssw51496100 0.7 1007712
09:00+9wsw51397100 2.4 1007688
12:00+10w41198100 1.4 1008610
15:00+10wnw4109299 1.5 1010692
18:00+9wnw3885100 0.1 1013595
21:00+8wnw268494 0.1 1016233